Wind_Speed
14 13 13 13 13 14 14 14 15 15 14 14 14 13 12 11 11 11 9 9 10 9 9 12 12 13 14 14 14 14 13 13 13 13 12 12 12 13 13 14 15 16 16 16 17 17 15 14 17 18 16 16 15 15 16 16 18 19 19 19 18 13 15 20 16 12 12 11 11 12 12 16 19 18 19 18 14 13 10 8 10 9 7 7 6 4 3
12 12 13 14 14 15 15 15 15 14 14 13 13 12 12 10 10 9 8 9 10 9 10 13 12 13 14 13 13 13 13 13 12 12 13 12 12 13 14 15 16 17 16 16 18 17 14 13 16 16 15 14 14 14 15 17 18 19 19 19 17 13 15 18 12 8 9 9 9 11 15 20 20 19 20 18 15 14 11 8 8 5 4 6 7 5 5
12 13 14 15 15 15 16 15 15 14 13 13 12 11 11 9 9 9 8 9 10 9 11 13 12 12 13 12 13 13 12 13 12 12 13 13 12 13 15 16 16 16 16 16 17 16 14 13 14 14 14 13 13 14 15 17 18 19 18 19 17 15 17 17 10 5 5 6 7 11 17 20 19 18 19 17 14 13 11 9 6 3 6 10 7 6 11
13 14 15 15 16 16 16 16 15 14 14 13 12 11 10 9 9 10 8 9 11 12 13 14 13 12 11 12 14 13 12 12 12 12 13 13 13 14 15 15 15 15 15 15 15 15 15 14 13 14 14 14 13 14 16 17 18 18 18 19 18 16 17 17 13 9 7 8 10 13 16 17 16 17 18 16 14 13 13 10 5 5 12 10 5 10 19
14 15 15 16 16 16 16 15 15 15 14 13 13 12 11 9 10 10 9 9 12 13 13 13 13 12 11 12 14 13 12 12 12 13 14 14 14 14 15 15 15 15 16 16 15 14 14 15 15 15 16 15 13 13 15 17 17 17 17 19 18 17 17 17 16 14 11 12 14 15 16 17 17 17 17 15 14 14 14 11 7 9 11 8 8 19 27
14 15 16 16 16 16 16 16 16 15 15 14 13 12 11 10 11 11 11 10 11 12 13 13 14 12 11 13 14 13 12 12 13 13 13 13 14 15 15 15 16 17 17 16 15 14 15 15 16 16 15 15 14 12 14 17 18 16 16 18 18 17 17 18 18 14 13 16 17 17 18 18 18 18 16 14 14 15 14 13 12 11 10 12 19 27 30
14 15 15 16 17 17 17 17 17 16 15 15 14 13 12 12 12 12 12 12 12 13 13 14 13 11 12 14 15 13 13 13 13 13 13 14 15 15 15 16 17 17 17 16 15 15 15 15 15 15 15 14 14 14 13 15 17 16 15 17 20 19 18 19 19 15 15 18 19 19 20 20 19 16 14 14 15 14 14 16 18 17 17 22 27 30 31
14 15 16 17 19 19 19 19 18 17 16 15 14 13 12 13 12 12 12 12 13 13 13 14 12 11 12 14 14 14 13 13 13 13 14 14 15 15 16 16 16 17 16 15 15 16 16 15 14 14 14 13 14 15 14 15 15 15 16 18 20 19 18 19 19 16 16 20 22 22 23 20 16 12 12 14 14 13 17 20 22 25 28 31 31 31 31
14 16 17 19 20 20 20 19 19 17 16 15 14 13 13 12 12 12 11 11 12 13 13 12 10 11 13 14 14 14 14 13 13 13 14 15 15 15 16 15 15 15 15 14 15 15 15 14 14 13 13 13 14 15 15 15 15 15 17 18 19 20 19 19 19 16 16 21 23 23 22 16 10 10 13 13 12 15 22 26 27 30 33 34 32 30 29
15 16 18 20 21 22 21 20 20 19 17 16 14 13 13 12 12 11 10 10 12 13 12 11 10 12 14 15 15 14 14 14 13 13 14 15 15 15 14 14 14 14 14 14 14 14 14 14 14 13 12 13 14 15 15 15 15 16 18 19 20 20 20 20 19 18 18 21 23 22 17 8 7 11 14 13 15 21 27 30 31 32 33 32 30 28 29
16 17 18 20 22 23 23 22 22 20 19 17 14 14 13 12 11 11 10 10 12 12 10 10 12 14 15 15 15 15 14 14 14 13 14 14 14 14 14 13 13 13 13 14 14 13 13 13 13 13 12 11 12 14 14 14 14 16 19 19 20 20 20 19 19 19 19 22 25 19 8 4 9 14 13 13 19 26 31 34 34 33 32 29 27 27 30
16 17 18 20 21 23 24 24 23 22 19 17 15 14 13 12 12 11 10 10 12 12 10 12 14 15 15 15 15 15 14 14 14 13 13 13 13 13 13 13 12 13 13 13 13 12 12 12 12 12 12 10 10 12 14 14 14 16 19 19 19 20 20 20 20 20 19 23 24 13 3 8 14 13 12 16 23 30 36 36 35 33 30 26 26 30 33
15 16 18 19 21 23 24 25 24 22 20 19 16 15 14 12 12 11 10 10 12 12 11 13 16 15 15 15 14 14 14 13 13 12 12 12 12 12 12 12 12 12 12 12 12 11 11 10 11 11 11 10 9 10 13 13 13 16 18 18 19 20 20 20 21 19 17 18 16 8 7 13 12 10 14 20 27 34 39 40 39 34 27 26 30 35 38
15 16 18 19 21 23 25 25 24 22 21 19 17 15 14 13 12 11 10 10 12 13 13 14 16 15 15 15 14 13 13 12 12 12 12 12 12 11 11 11 11 11 11 11 11 11 10 9 9 9 9 10 8 7 11 13 12 14 16 17 18 19 19 19 20 17 16 16 13 10 10 10 8 11 17 23 30 35 36 40 40 32 26 32 38 40 41
16 17 18 19 21 23 25 25 24 23 21 19 17 15 14 13 12 11 10 10 10 12 14 14 15 15 14 14 13 12 12 11 11 11 11 11 10 10 10 10 10 11 10 10 10 10 9 9 9 8 8 10 9 6 9 12 12 13 17 18 18 19 18 18 18 18 18 16 13 9 6 5 8 14 20 27 33 33 34 38 36 30 31 39 42 41 42
16 17 18 20 22 24 25 26 24 23 21 18 16 16 14 13 12 11 11 10 8 11 15 14 14 15 13 13 12 12 11 11 10 10 10 9 9 9 9 9 9 10 10 9 9 10 10 9 9 9 9 10 9 7 9 12 11 13 16 17 18 18 18 18 20 20 20 17 10 5 4 6 11 18 26 31 33 33 34 31 28 32 39 42 41 41 42
16 17 19 20 22 24 26 26 25 24 21 18 17 16 14 13 12 10 12 11 8 11 15 14 14 13 12 11 11 10 10 10 9 9 9 8 9 9 9 9 9 9 9 9 9 9 10 9 8 9 9 10 10 8 10 13 12 13 16 16 17 18 18 20 22 22 21 17 11 8 7 10 15 23 30 32 32 32 27 18 22 36 43 41 41 42 42
16 18 19 21 23 25 26 27 26 25 22 19 17 16 14 13 11 9 12 12 8 10 15 14 12 12 11 11 10 9 9 9 9 9 8 8 8 8 8 8 8 8 8 9 9 8 8 9 8 8 9 10 10 9 11 13 13 15 18 19 19 20 20 21 22 23 21 17 14 13 12 12 19 27 30 30 30 28 20 17 29 41 41 39 41 41 40
16 18 19 21 24 25 27 27 26 24 22 19 17 17 15 13 12 10 11 12 9 10 14 13 11 11 10 10 9 8 8 9 8 8 7 7 7 7 7 7 7 7 6 7 8 7 7 8 8 7 8 10 10 10 12 14 13 15 18 19 19 20 20 20 21 22 20 19 18 15 13 16 24 29 29 28 27 25 24 29 37 38 37 39 40 39 40
15 17 19 21 24 25 26 26 25 24 22 18 18 18 15 13 13 10 10 13 10 8 12 12 10 10 10 9 8 8 8 7 7 7 6 7 6 6 6 6 6 6 6 6 7 7 6 7 8 7 7 10 11 10 12 14 12 14 17 17 17 19 19 19 20 20 18 18 15 11 13 22 28 29 28 28 28 28 32 35 37 36 37 38 38 39 40
15 17 19 21 23 25 26 26 25 25 23 20 20 19 14 12 13 9 9 14 11 6 9 11 10 9 9 8 8 8 7 6 6 5 5 5 6 5 5 5 5 5 6 6 6 7 7 7 8 8 8 9 11 11 13 14 13 13 16 16 16 18 17 17 19 18 15 14 12 12 19 27 28 27 27 29 29 31 34 35 36 37 38 38 39 40 40
15 17 19 20 23 25 26 26 26 26 24 23 22 18 12 12 12 8 10 14 10 5 8 10 9 8 8 7 6 6 6 5 5 5 5 4 5 4 4 5 5 5 6 6 6 8 8 8 9 9 8 10 12 12 13 14 13 14 16 16 16 18 18 18 19 18 17 17 19 21 25 27 27 27 28 29 30 31 33 34 36 37 38 39 40 41 40
16 18 19 20 23 26 26 27 27 26 25 25 22 18 14 13 12 11 12 12 7 5 8 8 8 7 7 6 5 5 4 4 4 5 5 4 5 5 5 5 6 6 6 7 7 8 9 8 9 10 10 11 12 12 13 14 14 14 16 17 18 19 19 20 21 22 23 24 24 25 27 27 27 28 28 29 30 32 32 34 35 37 38 39 40 40 41
16 18 19 20 24 26 27 27 27 26 26 26 24 21 18 15 13 12 12 10 7 6 7 7 7 6 5 4 5 4 4 4 5 5 5 5 6 6 6 7 7 7 8 8 9 9 9 9 10 10 10 11 12 12 13 13 14 16 17 18 19 20 21 22 23 24 26 26 26 27 28 28 28 28 29 29 30 31 32 34 35 37 38 39 40 41 41
17 18 19 21 24 26 27 27 27 27 28 28 26 24 20 17 14 11 10 9 8 7 7 6 6 6 5 5 5 5 6 6 7 7 7 8 8 8 9 9 9 10 10 10 10 10 10 10 11 11 11 12 13 13 13 13 15 16 17 18 21 22 22 23 24 25 26 28 28 29 29 28 27 28 29 29 30 31 32 33 35 37 38 39 40 40 41
16 18 19 21 24 26 27 27 27 28 29 29 29 26 22 18 15 12 10 9 8 7 7 7 6 6 6 6 7 7 7 8 8 9 10 10 10 10 11 11 11 12 12 12 12 12 11 11 12 12 12 13 13 14 14 15 16 17 17 19 22 23 23 24 26 27 28 29 30 31 31 29 29 29 30 29 30 31 32 34 35 37 38 39 40 40 40
16 18 19 21 23 26 27 27 28 29 30 30 30 27 24 20 16 13 12 10 8 7 7 7 7 7 7 8 9 10 10 10 11 11 12 12 12 12 13 13 13 13 13 13 13 13 13 13 13 14 14 14 15 15 16 16 17 17 18 21 23 24 24 24 26 28 29 29 30 31 31 31 30 30 30 30 30 31 33 34 36 37 38 39 40 40 40
15 17 19 21 23 25 26 27 28 30 31 31 30 29 26 21 17 15 14 12 9 8 8 8 8 8 9 9 11 12 12 13 13 13 14 14 14 14 14 15 15 15 15 15 15 15 15 15 15 15 15 15 16 17 17 18 18 17 18 22 24 25 24 24 25 27 28 29 30 31 30 30 31 30 30 30 31 32 33 34 36 37 38 39 40 40 40
14 16 18 20 22 24 26 27 28 29 30 30 29 28 26 23 20 18 16 13 12 11 11 10 10 10 10 10 12 13 14 15 15 15 16 16 17 16 16 16 17 17 17 17 16 16 17 17 16 16 16 16 18 19 18 19 19 18 19 22 26 26 26 25 26 27 28 29 30 31 30 30 31 31 31 31 31 32 33 34 36 37 38 39 40 40 40
13 15 16 18 20 22 25 26 27 28 29 29 29 28 27 27 25 23 19 17 15 14 13 12 12 12 12 12 14 15 16 16 17 17 17 18 18 18 18 18 18 19 19 19 18 18 18 18 18 18 18 17 19 20 20 21 20 19 20 23 27 28 27 27 27 28 29 30 31 31 30 30 31 32 32 31 31 32 33 35 36 37 38 39 40 40 40
14 14 15 17 19 21 23 24 25 26 28 28 28 28 28 29 28 27 24 21 19 17 16 15 15 15 15 15 17 17 17 18 18 19 19 19 19 20 20 20 20 20 20 20 20 20 19 19 19 19 19 18 19 21 21 21 21 21 22 24 27 28 28 27 28 29 30 31 32 32 31 30 32 33 32 32 32 33 34 35 36 37 38 39 40 40 40
14 13 14 15 17 19 21 22 23 25 26 27 27 27 28 28 28 28 27 25 23 22 20 19 18 17 17 17 18 19 18 19 20 20 20 21 21 21 22 22 22 22 21 21 21 21 20 20 20 20 20 19 20 21 21 20 21 23 24 25 27 28 28 28 28 29 30 31 32 33 32 31 32 33 33 32 33 33 34 35 36 37 37 38 39 40 40
14 14 13 14 16 17 18 20 22 24 24 25 26 26 26 26 26 26 27 26 26 25 24 23 22 20 20 20 20 20 20 21 21 22 22 22 22 23 22 22 22 22 22 22 22 22 22 21 20 21 21 19 20 21 20 19 21 24 24 25 27 28 28 27 28 29 30 31 32 33 32 32 32 33 33 33 33 34 34 35 36 37 37 38 39 40 40
13 14 13 13 14 16 17 18 20 22 22 24 25 25 25 25 25 25 25 25 26 26 25 24 24 23 23 22 22 22 23 23 23 23 23 23 23 24 24 23 23 23 23 23 22 21 21 21 21 21 20 19 20 21 19 19 22 25 25 25 27 28 28 27 28 29 30 31 32 32 32 32 33 33 33 33 34 34 34 35 37 37 37 38 39 40 40
12 13 14 13 13 15 16 16 17 19 21 22 23 24 24 24 24 25 25 25 25 26 25 25 26 26 25 25 25 25 26 26 25 24 24 23 23 24 24 24 23 23 23 23 22 21 21 21 21 20 19 19 18 18 18 20 24 26 26 26 28 28 28 28 28 29 30 31 32 32 33 33 33 34 34 34 34 34 35 36 37 37 38 38 39 40 39
12 13 14 14 13 14 15 16 16 17 19 20 21 22 24 23 23 24 24 25 25 25 26 26 27 28 28 27 27 27 28 27 26 25 24 24 24 23 23 24 23 23 23 23 21 21 20 20 20 20 20 19 17 16 17 21 25 26 27 28 28 28 28 28 28 29 30 31 32 33 33 33 34 34 34 34 35 35 35 35 37 37 38 38 39 40 40
12 13 13 14 14 13 14 15 15 15 17 19 20 21 22 23 23 24 24 24 24 25 26 27 28 29 29 28 28 28 28 28 28 27 25 25 24 23 23 24 23 23 24 23 21 20 20 20 20 21 20 17 15 15 18 22 26 27 28 29 29 28 28 28 29 30 31 31 32 33 33 33 34 34 34 34 35 35 35 36 36 37 38 38 39 39 39
12 13 13 14 14 13 14 15 15 14 15 17 18 19 21 22 23 23 23 24 24 25 26 27 28 29 29 29 29 29 29 29 29 28 27 27 25 23 23 24 23 23 24 23 20 20 20 20 21 22 19 15 14 16 19 24 26 28 29 30 29 29 28 28 29 30 31 32 32 33 34 34 35 35 34 35 35 35 35 36 36 37 37 38 39 39 39
12 13 13 14 14 14 14 15 16 14 14 16 17 18 19 21 22 22 23 24 25 25 27 28 29 30 30 31 30 30 30 30 30 29 28 27 25 24 25 24 23 24 24 22 20 20 22 22 24 23 18 13 14 18 23 25 27 29 30 31 30 29 28 28 29 30 31 32 32 33 34 35 35 35 35 35 35 35 35 36 36 36 37 38 38 38 38
12 12 13 14 15 14 15 16 16 14 14 15 16 17 18 20 22 23 24 25 26 27 28 29 30 30 31 31 31 31 30 30 30 30 28 26 25 25 25 24 23 23 22 21 21 23 24 25 25 23 18 15 17 22 25 27 28 30 31 32 30 29 28 29 29 30 31 32 32 33 34 35 35 35 35 35 35 35 36 36 37 37 37 38 38 38 38
11 12 13 14 14 14 15 17 17 16 15 16 17 17 18 20 21 23 24 25 26 27 29 30 31 31 31 32 32 31 31 30 30 30 28 27 26 26 25 24 22 20 19 20 23 26 26 25 25 22 19 19 23 26 28 29 30 31 32 32 31 29 29 29 29 31 32 32 32 33 34 35 35 35 35 35 35 35 36 37 37 37 37 38 39 39 38
11 11 12 13 14 14 15 16 18 17 16 17 18 18 18 19 21 23 23 24 26 28 29 30 31 32 32 32 32 31 30 31 31 30 29 28 28 27 26 24 21 19 20 23 25 24 24 25 25 24 22 24 27 29 31 31 31 31 33 33 32 30 29 29 30 31 32 32 32 33 34 35 35 36 35 35 35 35 36 37 37 37 38 38 39 39 38
11 12 11 12 14 14 14 16 17 18 17 19 20 20 19 20 22 22 22 23 26 28 29 30 31 31 32 32 31 30 30 30 30 30 29 28 28 27 25 24 22 22 24 24 23 22 22 23 25 26 26 28 30 32 33 32 32 32 33 34 32 30 29 29 30 31 32 32 32 33 34 35 36 36 36 36 36 36 36 37 38 38 38 39 40 40 39
11 12 12 12 13 15 14 15 17 18 19 20 22 22 22 22 22 22 23 23 25 27 29 30 31 31 32 32 31 30 30 30 30 28 27 27 27 25 24 24 25 26 25 24 22 22 23 25 27 29 30 31 32 34 33 33 32 33 33 34 32 31 29 29 30 31 32 32 32 33 34 35 36 36 36 36 36 36 36 37 38 38 38 39 40 40 40
11 12 12 12 13 15 15 15 17 19 20 21 23 23 24 24 24 24 24 24 25 26 28 29 30 31 31 31 30 30 30 30 29 27 27 27 26 24 24 25 26 25 23 23 23 24 26 29 32 34 33 33 33 34 33 32 32 33 33 33 32 30 29 29 31 31 32 32 32 33 34 35 36 37 37 36 36 36 36 37 37 38 38 39 40 41 40
13 14 14 14 14 15 15 16 17 19 20 21 23 23 24 24 25 24 24 25 25 26 28 29 30 31 31 30 30 29 29 28 28 27 26 27 26 26 26 26 24 21 21 23 26 27 31 35 37 37 36 35 34 33 33 33 33 33 33 33 32 30 29 29 30 32 32 32 32 33 34 35 36 37 37 37 37 36 36 37 37 38 38 39 40 41 41
14 15 16 15 15 15 16 17 18 19 20 22 23 24 24 25 25 25 25 25 26 26 27 28 30 30 30 30 29 29 28 27 27 26 26 27 27 27 26 24 21 20 22 26 30 33 36 39 39 38 37 36 35 33 33 33 32 32 33 33 32 30 29 29 30 32 32 32 32 32 34 35 36 37 37 37 37 37 37 37 37 38 39 39 40 41 41
15 16 16 16 17 17 18 19 19 20 21 22 23 24 25 26 26 26 26 26 26 27 28 29 30 30 30 29 29 29 27 26 26 26 27 27 26 25 24 24 24 25 27 30 34 38 39 40 40 40 38 37 35 34 33 33 33 32 33 33 31 30 29 29 30 32 32 32 32 32 33 35 36 37 38 37 37 37 38 37 37 38 39 40 40 41 42
16 16 16 17 18 19 20 21 21 21 21 23 23 24 25 26 27 27 28 27 27 27 28 29 30 30 29 29 30 28 26 25 26 28 28 27 25 23 24 26 29 32 33 35 39 40 40 40 41 41 39 37 35 34 33 33 33 32 32 32 31 30 29 29 30 32 32 32 32 32 33 34 36 37 38 38 37 37 38 38 38 38 39 40 40 41 42
16 17 17 18 19 20 21 22 22 22 22 23 24 24 25 26 27 28 28 28 28 28 28 29 30 30 30 30 29 28 26 27 29 29 29 27 25 25 27 30 33 35 37 38 39 40 40 40 41 41 39 37 35 34 33 33 32 32 32 32 31 29 29 30 31 32 33 32 32 32 33 34 35 37 38 38 37 37 38 38 38 38 38 39 40 41 42
17 18 18 19 20 21 22 23 23 23 23 23 24 24 25 26 27 28 29 29 29 28 28 29 29 29 30 30 29 28 27 29 30 29 29 28 27 29 32 34 36 37 38 38 38 38 39 40 41 41 40 38 36 34 34 33 32 31 32 32 31 29 29 29 30 32 33 32 32 32 33 34 35 36 38 38 38 37 37 38 38 38 39 39 40 41 42
17 18 19 19 21 22 23 23 24 24 24 24 25 25 25 26 27 28 29 30 29 29 28 29 29 29 28 28 29 28 28 28 30 31 30 30 30 32 35 36 36 37 38 39 38 38 38 39 40 40 40 38 36 35 34 32 31 31 32 32 31 29 29 29 30 32 32 32 32 32 33 33 35 36 38 39 39 38 38 38 38 38 39 40 40 41 42
Wind_Direction
351 355 357 358 357 356 356 355 354 354 353 354 355 356 359 357 3 13 14 21 30 25 32 45 47 52 58 58 58 57 53 52 52 49 49 50 49 46 42 36 30 26 22 18 17 18 19 17 14 14 17 20 23 30 33 28 23 22 19 15 15 18 10 4 5 8 8 9 2 355 350 343 341 349 357 0 2 357 343 318 312 318 331 333 312 293 296
0 2 1 0 358 357 357 356 356 355 355 356 356 359 1 2 11 16 16 28 29 21 36 49 48 52 58 59 57 57 55 55 54 51 50 50 48 42 37 32 26 23 21 20 20 21 23 20 16 20 26 29 35 39 33 25 22 23 22 21 22 25 17 9 5 2 4 3 359 353 344 340 341 345 350 354 355 351 349 339 324 317 340 340 317 297 306
5 4 3 2 1 1 0 0 1 2 2 3 5 7 9 11 18 19 26 34 26 27 47 50 49 55 60 61 59 57 58 58 55 51 49 48 43 37 33 29 25 24 24 23 23 24 27 28 27 32 38 42 46 40 30 26 24 27 29 26 26 29 24 20 19 7 349 340 334 328 326 331 336 337 341 347 351 355 0 354 339 319 324 323 303 290 310
7 6 6 6 6 6 6 7 8 9 11 12 14 17 18 21 28 31 37 39 32 42 56 54 53 59 62 64 64 59 57 59 56 51 48 45 39 34 32 28 26 28 27 26 28 29 33 38 42 45 47 48 48 38 30 28 28 32 32 25 26 27 22 20 19 6 346 332 328 323 321 324 327 330 338 346 350 356 2 1 356 334 327 318 287 305 316
11 11 11 12 12 12 12 12 13 14 16 17 19 22 23 29 41 42 45 47 43 49 59 58 56 59 62 67 68 62 57 58 56 51 46 42 37 33 32 29 30 33 33 33 35 37 41 44 47 50 49 47 45 38 33 31 31 33 30 24 22 21 17 14 10 5 0 352 346 339 330 325 325 330 338 344 349 352 359 4 2 342 332 315 303 315 317
16 17 16 16 15 15 15 14 15 17 18 19 22 25 28 37 48 50 52 59 58 57 62 62 58 58 61 66 68 64 59 56 54 51 45 39 36 34 33 33 36 39 40 40 42 45 46 46 48 51 49 46 43 38 34 33 32 30 26 20 18 17 14 10 7 8 7 360 352 345 337 329 327 331 336 343 348 350 354 358 351 339 323 311 313 315 316
21 20 19 19 18 17 18 18 19 19 20 23 25 27 33 42 50 54 56 62 65 63 63 64 61 58 60 65 68 64 59 56 53 50 45 40 38 38 38 40 43 43 44 44 47 51 51 51 53 52 50 49 45 41 37 32 29 26 19 16 15 15 12 8 8 9 5 1 355 346 338 330 326 333 342 346 347 348 350 349 342 332 322 319 319 317 318
25 24 24 25 24 23 23 23 23 23 23 28 28 29 38 44 48 55 58 60 64 64 64 65 62 58 60 65 68 63 58 58 55 51 48 44 43 43 44 45 46 46 47 47 50 54 55 56 57 54 52 50 45 42 39 33 28 22 16 15 14 12 11 8 6 6 5 2 355 345 337 329 326 338 347 343 343 347 347 344 338 332 328 327 325 322 321
30 32 33 32 30 29 28 27 26 26 27 30 29 31 40 44 46 54 57 59 64 65 66 67 62 60 63 66 67 65 61 60 58 54 53 51 49 48 48 49 49 47 48 49 52 56 57 56 57 55 52 49 44 39 35 31 26 18 15 15 12 11 12 7 4 6 4 359 353 344 336 328 329 345 345 341 344 345 342 340 336 332 330 329 327 324 323
39 40 38 37 35 32 31 29 29 28 29 30 30 34 41 44 47 54 54 59 69 69 66 67 65 65 68 68 67 68 66 63 61 58 57 55 53 52 51 52 52 51 50 52 54 56 56 55 54 52 49 47 42 35 31 28 22 16 14 13 10 10 10 5 5 4 359 358 353 343 336 332 335 339 338 337 341 340 337 336 335 333 330 327 325 324 323
44 43 41 38 35 32 30 29 29 29 30 30 32 36 43 45 49 54 53 60 72 72 65 68 70 69 71 70 69 70 69 66 64 61 60 59 56 54 54 54 55 54 53 53 54 54 53 51 48 45 43 42 38 31 27 26 20 15 13 11 9 10 7 6 7 2 355 356 353 345 340 346 329 326 329 335 338 337 334 333 334 333 330 327 324 323 322
45 43 40 36 32 30 28 27 27 29 30 31 34 38 43 46 49 55 55 60 73 77 72 73 74 72 73 74 72 72 71 69 68 66 64 63 60 57 57 57 57 57 54 53 51 50 49 45 42 39 35 33 33 27 23 21 16 13 12 9 8 8 7 6 6 360 354 354 356 356 351 332 324 317 325 334 336 335 331 330 334 335 332 328 326 324 324
44 40 36 33 30 28 27 25 25 27 28 31 35 38 43 46 48 55 59 62 74 82 80 77 78 77 77 77 75 75 74 73 72 70 68 66 63 59 59 59 59 58 55 52 49 45 44 40 37 34 28 24 25 23 19 16 11 9 9 6 6 8 8 5 2 358 354 351 352 349 322 324 324 319 328 333 333 334 331 330 335 338 334 329 329 327 326
41 37 33 32 30 28 26 24 23 26 28 30 34 38 42 46 49 55 62 66 75 84 84 82 83 82 80 79 77 77 77 77 76 73 68 66 63 61 61 60 58 57 54 49 45 41 39 37 33 30 25 20 17 15 12 9 6 5 4 3 6 7 6 5 2 359 356 346 334 324 319 321 326 328 330 331 332 333 331 328 332 337 333 330 330 328 326
39 36 33 32 31 28 26 24 23 27 28 28 34 40 43 47 49 54 65 68 73 84 87 86 85 84 82 81 81 80 81 80 79 76 71 68 65 62 61 61 56 54 51 46 42 37 33 31 28 28 24 17 13 7 1 2 0 359 359 1 4 4 3 6 4 360 359 353 337 329 328 318 324 328 329 330 332 333 330 325 328 336 334 330 329 327 325
38 35 33 32 30 27 25 23 24 28 27 26 35 42 44 48 49 53 66 68 69 86 91 88 86 85 84 85 85 84 84 83 81 78 74 70 67 61 59 58 53 49 47 41 35 32 28 24 22 25 23 15 11 1 353 357 358 357 358 357 358 360 0 2 3 1 2 359 343 318 301 306 320 327 329 332 333 332 330 325 326 332 331 328 327 326 325
36 34 33 31 29 26 24 23 26 28 26 26 37 43 44 49 48 52 68 70 70 89 93 90 87 87 86 88 89 88 89 89 84 81 77 73 69 62 57 55 48 43 41 35 28 25 22 17 15 19 17 10 7 358 350 353 353 353 356 355 355 359 359 359 2 1 358 354 342 322 308 307 320 328 331 332 332 331 330 324 322 327 328 326 326 326 325
34 34 32 31 28 25 23 24 26 27 25 27 40 45 45 49 48 52 71 72 73 93 96 92 92 94 93 95 95 93 94 92 85 81 77 72 71 63 56 53 45 37 34 29 24 17 12 10 9 9 9 5 3 356 350 350 348 349 353 353 354 358 358 358 360 356 352 348 337 325 320 318 326 331 331 331 331 329 325 317 320 325 325 325 325 325 324
34 34 32 31 28 25 24 25 26 27 25 29 43 47 45 50 51 54 73 76 74 94 101 99 100 104 103 102 102 100 97 91 84 82 76 67 66 59 50 47 41 34 28 23 17 9 3 5 4 1 3 2 358 353 350 348 347 348 351 352 352 354 355 354 354 351 347 342 332 324 325 330 331 330 329 329 329 324 319 320 323 325 324 324 325 325 325
34 34 33 32 29 26 26 26 27 29 27 31 46 49 43 50 53 55 79 83 73 88 104 106 109 111 108 108 107 101 95 89 83 83 78 66 60 54 45 41 34 27 19 12 8 3 359 1 1 358 357 357 355 350 348 348 347 347 349 350 350 351 351 349 348 347 342 337 333 325 325 330 331 329 328 329 328 323 323 325 326 326 326 326 327 327 327
35 35 34 32 29 27 27 27 28 30 29 34 46 47 41 51 55 56 86 85 71 80 109 110 113 114 111 110 107 97 90 85 78 75 70 59 52 51 43 33 24 18 10 1 358 0 359 358 359 357 353 352 351 346 343 346 347 346 347 348 347 349 347 342 341 342 335 327 324 321 322 327 331 330 329 329 328 327 327 327 327 328 329 329 329 329 328
39 38 35 33 30 28 28 29 29 31 32 37 46 47 47 59 63 66 82 79 70 83 109 109 111 110 106 102 99 93 85 80 71 61 53 42 34 36 33 20 9 5 1 354 352 355 356 354 354 352 348 347 348 343 341 342 343 343 345 344 342 343 343 338 336 336 331 327 328 329 329 331 332 332 331 331 330 329 328 328 329 330 331 331 331 330 330
43 41 37 34 31 29 30 30 31 32 34 40 45 48 52 59 62 63 70 72 74 91 96 97 98 97 94 89 84 79 69 59 51 42 34 22 13 15 13 5 359 354 352 349 347 349 351 349 348 347 344 344 344 340 338 340 340 341 341 340 340 341 340 339 337 335 334 336 337 336 335 335 333 332 333 333 331 330 331 331 332 332 332 332 332 331 331
46 43 40 36 33 31 31 32 32 33 35 39 43 46 49 53 55 59 65 68 73 78 78 80 82 80 76 69 61 50 36 27 17 10 6 0 357 357 353 350 350 348 345 344 343 343 343 342 341 341 339 339 340 338 335 336 338 339 339 338 340 341 339 338 338 336 335 337 338 337 337 337 335 333 334 333 332 332 334 334 334 334 334 333 333 332 332
47 44 41 37 34 33 33 33 33 34 36 38 40 41 44 47 49 55 62 62 60 60 60 61 61 57 50 41 31 21 13 7 359 354 352 349 348 346 342 341 342 341 340 339 338 337 335 332 334 335 334 334 335 335 333 331 334 338 340 339 338 338 337 336 335 335 335 336 337 338 338 338 336 334 335 334 333 334 336 336 336 336 334 334 333 333 333
48 45 43 39 36 35 35 34 34 36 37 38 38 38 39 41 43 47 51 51 47 44 44 42 38 34 29 20 10 5 360 352 348 345 344 344 344 341 337 336 335 335 335 333 331 331 329 326 326 327 328 328 330 331 330 329 331 334 339 340 338 336 336 334 332 333 337 338 337 338 339 339 338 337 336 335 334 335 337 337 337 336 335 334 334 334 333
50 46 44 41 38 36 36 35 36 37 39 38 37 35 35 36 38 40 42 41 36 29 28 26 20 17 13 7 1 357 351 346 343 340 338 337 336 334 333 332 330 330 330 328 326 325 324 322 320 320 322 324 325 326 327 327 328 329 334 339 339 336 334 333 330 331 336 338 337 337 338 339 339 338 336 335 334 336 338 338 337 336 335 334 334 334 334
51 48 45 43 40 38 38 37 37 38 39 39 37 35 33 33 34 37 37 33 27 21 18 13 8 4 359 355 353 351 347 343 340 337 335 334 331 329 329 328 326 326 325 325 324 321 318 318 316 315 317 319 319 321 323 324 325 325 327 334 339 337 334 332 329 330 334 337 337 338 337 337 337 337 336 335 335 336 338 338 337 336 336 335 335 335 335
53 49 46 44 42 40 39 38 38 38 40 40 38 36 35 34 35 36 34 28 22 19 14 7 360 354 350 347 347 345 342 339 337 335 333 332 329 327 325 324 323 323 322 321 321 317 314 314 313 311 313 314 315 318 320 320 323 324 324 329 336 337 334 333 331 331 334 337 337 338 338 336 337 338 337 336 335 336 337 337 337 336 336 335 335 335 335
53 51 47 44 43 41 40 39 38 39 40 40 39 37 37 37 37 36 32 26 22 19 13 7 1 356 351 347 345 341 337 335 335 334 330 328 327 325 324 322 322 321 320 319 318 315 312 311 310 310 310 309 309 315 317 317 321 327 326 327 333 335 335 334 333 333 335 336 337 338 338 337 337 338 338 336 335 335 336 337 337 337 337 336 336 336 336
52 50 47 44 42 41 40 39 38 38 40 40 38 37 37 37 37 37 34 30 26 21 14 9 3 358 354 349 344 340 336 334 334 332 329 326 325 323 322 320 319 319 319 317 315 314 312 310 309 308 308 304 303 309 315 317 322 328 328 327 331 335 334 334 334 334 335 336 337 338 340 339 338 338 338 337 335 335 336 337 337 337 337 337 336 336 336
49 49 47 44 41 39 38 37 37 37 38 37 36 36 36 36 36 37 35 33 31 28 22 16 9 3 357 351 344 339 337 335 333 331 329 326 325 323 322 320 318 318 319 316 313 313 313 311 308 306 306 303 301 305 312 317 322 327 329 328 331 334 334 333 334 334 335 336 336 338 340 340 338 338 338 337 336 336 336 337 337 338 338 337 337 337 336
47 45 44 42 39 37 36 35 34 35 34 34 33 34 34 34 34 34 33 31 30 30 27 22 17 13 7 0 354 348 342 336 333 331 330 327 326 324 323 321 319 318 318 316 313 311 312 312 308 305 304 304 302 303 310 319 325 328 330 330 332 334 334 334 334 334 335 336 337 338 339 340 339 338 338 337 337 336 336 337 337 338 338 337 337 337 337
45 42 41 39 36 33 32 31 31 31 31 30 30 30 29 29 29 29 29 28 27 27 25 21 19 16 13 9 6 1 353 346 340 335 332 329 327 326 324 323 321 319 318 317 314 311 310 310 307 304 304 306 303 302 309 322 329 331 333 334 333 333 334 334 334 335 335 336 337 338 339 339 339 339 338 338 337 337 337 338 338 339 339 338 337 337 337
44 40 37 35 33 31 28 27 27 27 27 27 27 26 25 25 24 24 24 23 23 22 20 17 15 14 12 10 8 5 0 355 350 344 338 332 329 327 325 324 323 320 318 318 316 313 311 309 306 304 305 307 305 304 311 324 331 334 335 336 334 333 333 333 334 335 336 337 337 338 339 340 339 339 338 338 337 338 338 338 339 339 339 339 338 338 337
42 38 35 32 30 28 26 23 22 23 23 23 23 22 22 21 20 20 19 19 19 18 15 13 12 10 8 7 6 3 1 358 355 352 346 339 336 333 328 326 325 323 321 321 320 316 312 309 306 305 308 310 307 306 314 325 331 335 337 336 335 333 333 333 334 335 336 337 338 338 339 340 339 339 338 338 337 338 338 339 340 340 340 340 339 338 337
41 37 33 30 28 27 24 20 19 19 19 18 18 18 18 17 16 16 16 15 15 14 12 10 9 7 6 5 2 0 359 357 356 355 352 347 344 341 335 332 331 328 326 326 324 318 314 312 308 309 314 315 308 307 319 327 332 335 337 336 334 333 332 333 334 335 336 338 338 338 339 340 339 339 339 338 337 338 338 339 340 340 340 340 340 339 338
40 37 33 30 27 25 22 18 16 15 15 14 14 14 14 14 13 13 12 11 11 10 9 7 6 4 4 2 360 358 357 356 355 355 353 350 349 346 340 337 335 331 329 330 327 321 319 317 313 315 321 318 307 311 324 330 331 334 336 335 334 332 332 332 334 334 336 337 338 338 339 340 340 339 338 338 337 337 338 339 339 340 340 340 340 340 339
39 37 34 30 27 24 22 18 15 13 12 11 10 10 10 9 9 10 10 8 7 6 5 4 3 2 1 0 358 357 355 354 354 354 353 351 349 346 342 339 336 331 329 330 329 326 323 320 318 322 327 322 314 321 329 330 330 333 335 334 333 331 331 332 333 334 335 337 337 338 339 339 340 340 338 338 337 337 337 338 339 340 340 340 341 341 340
37 35 33 30 27 25 22 18 15 13 11 9 7 5 5 5 5 5 5 5 5 3 1 0 360 359 358 357 356 355 354 353 352 351 351 350 348 346 343 340 336 331 330 331 331 328 324 321 322 327 330 326 324 328 330 329 330 332 333 332 332 330 330 331 333 334 335 336 336 337 338 339 340 339 339 338 337 337 337 338 339 340 340 340 341 341 341
33 32 30 28 25 24 22 18 15 14 12 9 6 3 1 1 1 1 1 1 1 359 358 356 356 356 356 355 354 353 352 351 350 349 348 348 347 345 343 341 337 332 330 330 331 329 325 324 327 331 331 328 329 331 330 329 329 330 331 331 331 330 329 330 332 333 334 335 336 337 338 339 340 340 339 338 337 337 337 338 339 339 340 341 341 341 341
27 25 25 23 22 20 19 17 16 15 12 8 6 3 360 357 357 357 357 357 355 355 354 354 353 353 353 352 352 351 350 349 349 348 346 346 345 342 341 341 337 330 327 328 329 328 327 327 330 331 330 327 327 329 329 327 327 328 329 330 330 329 329 329 331 332 334 335 335 337 338 339 339 339 339 338 337 337 337 338 339 339 340 341 341 341 341
18 17 16 15 15 15 14 13 14 14 11 6 3 1 358 356 354 352 352 351 350 350 351 351 351 350 350 349 349 349 349 348 347 346 344 343 342 339 338 337 334 328 326 327 327 327 327 329 330 330 328 326 326 327 327 326 325 326 328 329 329 328 328 328 330 331 333 334 335 336 338 339 339 340 339 338 337 337 337 338 339 339 339 340 341 342 341
6 7 7 6 7 7 7 8 10 10 8 4 1 358 355 354 351 348 346 346 346 347 347 348 348 348 347 346 346 347 347 346 345 344 342 341 339 336 333 331 329 328 326 326 325 326 329 332 333 331 328 325 325 325 325 324 323 324 326 327 327 327 326 327 329 330 332 333 334 336 337 338 339 340 339 338 337 337 337 338 339 339 339 340 341 342 341
353 356 357 358 359 1 2 2 3 3 2 1 359 356 353 350 348 345 344 343 343 343 344 344 345 345 345 344 344 344 344 344 344 343 340 338 337 334 331 329 327 326 324 323 323 325 329 332 333 331 328 326 324 322 322 322 322 323 324 326 326 325 325 326 328 329 331 332 333 335 336 338 339 340 339 338 337 337 337 338 339 339 339 339 341 341 341
345 346 347 349 351 354 355 355 355 354 354 354 354 353 351 349 346 344 342 341 340 340 341 341 342 343 343 342 342 342 342 342 342 342 340 337 334 332 330 328 327 324 321 321 323 326 329 330 331 331 329 326 323 321 320 321 321 321 323 325 325 324 324 325 327 328 330 331 332 334 336 337 339 340 340 338 337 337 337 338 339 339 338 339 340 341 341
341 341 341 341 341 344 346 347 346 345 344 346 349 349 348 347 346 343 341 340 339 338 338 339 340 341 341 340 341 341 341 340 341 342 340 336 333 331 330 327 325 323 321 320 323 327 328 329 329 330 328 325 322 320 319 319 319 320 322 323 324 323 323 325 326 328 329 330 332 333 335 337 338 339 340 339 338 337 337 338 340 339 339 339 340 341 341
336 336 336 335 334 335 337 339 340 339 337 339 342 344 344 344 344 342 340 339 338 337 337 337 337 338 339 339 339 340 339 338 338 340 340 336 332 330 328 325 323 325 325 323 324 326 327 327 327 328 327 324 321 319 318 318 318 319 321 323 324 323 323 324 326 327 328 330 331 332 334 336 337 339 340 339 338 337 337 338 340 340 339 339 340 341 341
327 329 330 329 328 329 331 332 334 335 334 332 335 338 340 341 341 341 339 338 337 336 336 335 335 336 337 337 337 338 338 336 336 338 338 336 331 326 323 321 323 327 328 326 324 325 326 326 326 327 326 324 321 318 317 317 318 319 320 322 323 322 322 324 326 327 328 329 330 332 333 335 337 338 340 340 339 337 337 337 339 340 339 339 340 341 341
321 321 323 322 322 324 326 327 329 331 331 329 329 332 334 336 338 338 337 336 336 336 335 335 335 335 335 335 335 336 335 334 333 334 336 334 330 325 322 323 326 328 327 325 324 324 325 325 325 326 326 324 321 318 317 317 317 318 320 322 322 322 322 324 326 327 328 328 329 331 333 334 336 338 339 340 339 338 337 337 339 340 339 339 340 341 341
320 319 320 319 318 319 321 322 324 326 328 327 326 326 328 331 333 335 335 335 335 334 334 334 333 333 333 333 332 332 330 330 330 332 334 333 329 324 323 326 328 328 326 325 325 325 325 325 325 325 325 324 321 318 317 317 316 317 319 322 322 321 322 323 325 327 327 328 329 330 332 333 335 338 339 339 339 338 337 337 338 339 339 339 340 341 342
322 320 320 319 317 315 316 317 319 321 323 324 323 322 324 327 329 331 332 333 333 333 332 332 331 330 329 328 328 328 327 325 326 329 332 332 329 326 325 327 329 328 327 327 328 327 326 326 326 325 324 324 322 319 317 316 316 316 318 321 322 321 321 323 325 326 327 327 328 329 331 333 335 337 339 340 339 338 338 338 338 339 339 339 340 341 342
Height
3155 3154 3153 3151 3150 3149 3147 3146 3144 3142 3141 3139 3138 3137 3136 3134 3133 3132 3132 3131 3130 3130 3129 3129 3128 3128 3128 3129 3129 3129 3129 3129 3129 3129 3128 3128 3128 3128 3128 3127 3127 3126 3126 3125 3124 3122 3122 3121 3120 3119 3118 3117 3116 3115 3114 3113 3112 3110 3109 3108 3106 3105 3104 3103 3101 3099 3098 3097 3096 3096 3095 3094 3093 3091 3090 3089 3088 3088 3087 3086 3084 3083 3082 3081 3079 3076 3073
3155 3154 3153 3151 3150 3148 3147 3145 3144 3142 3140 3139 3138 3136 3135 3134 3133 3133 3132 3131 3131 3130 3130 3129 3129 3129 3129 3129 3129 3130 3129 3129 3129 3129 3129 3129 3129 3129 3128 3128 3127 3127 3126 3125 3124 3122 3122 3121 3120 3119 3118 3117 3117 3116 3115 3113 3112 3111 3109 3108 3107 3106 3105 3103 3101 3099 3098 3096 3095 3095 3095 3093 3092 3090 3090 3089 3088 3087 3086 3085 3084 3083 3082 3082 3080 3076 3074
3155 3154 3153 3151 3150 3148 3146 3145 3143 3142 3140 3139 3138 3136 3135 3134 3133 3133 3132 3132 3131 3131 3130 3130 3130 3129 3130 3130 3130 3130 3130 3130 3130 3130 3130 3130 3130 3129 3129 3128 3127 3127 3126 3125 3124 3123 3122 3121 3120 3119 3118 3118 3117 3116 3115 3114 3112 3111 3110 3109 3108 3106 3105 3104 3103 3102 3101 3099 3098 3096 3095 3093 3092 3091 3090 3089 3088 3087 3086 3085 3084 3083 3082 3081 3080 3077 3074
3155 3154 3153 3151 3149 3148 3146 3145 3143 3142 3140 3139 3138 3136 3135 3134 3133 3133 3132 3132 3132 3131 3130 3131 3130 3130 3131 3131 3130 3131 3131 3131 3131 3131 3131 3130 3130 3130 3129 3128 3128 3127 3126 3125 3124 3123 3122 3121 3120 3119 3118 3118 3117 3116 3115 3114 3113 3112 3110 3109 3108 3107 3106 3105 3104 3104 3103 3101 3100 3097 3095 3093 3092 3091 3089 3088 3087 3086 3085 3085 3084 3083 3081 3079 3078 3076 3074
3155 3154 3153 3151 3150 3148 3147 3145 3143 3142 3140 3139 3138 3136 3135 3135 3134 3133 3133 3132 3132 3131 3131 3131 3131 3131 3131 3131 3131 3131 3131 3131 3132 3131 3131 3131 3131 3130 3129 3129 3128 3127 3126 3124 3123 3123 3122 3121 3120 3119 3119 3118 3117 3116 3116 3114 3113 3112 3111 3110 3109 3108 3107 3106 3104 3103 3102 3100 3099 3097 3094 3093 3091 3090 3088 3087 3087 3086 3085 3084 3084 3083 3081 3078 3076 3075 3072
3156 3155 3153 3152 3150 3149 3147 3145 3144 3142 3140 3139 3138 3137 3136 3135 3134 3134 3133 3133 3133 3132 3132 3132 3132 3132 3131 3131 3131 3132 3132 3132 3132 3132 3132 3131 3131 3130 3129 3128 3127 3126 3125 3124 3124 3123 3122 3121 3120 3119 3119 3118 3118 3117 3116 3115 3113 3112 3112 3111 3109 3108 3107 3105 3104 3102 3101 3099 3097 3095 3093 3091 3090 3089 3088 3087 3086 3085 3084 3083 3083 3082 3081 3078 3076 3073 3070
3156 3155 3154 3152 3151 3149 3147 3145 3144 3142 3141 3139 3138 3137 3136 3135 3134 3134 3134 3133 3133 3133 3133 3132 3132 3133 3132 3132 3132 3133 3133 3132 3132 3132 3132 3131 3131 3130 3129 3128 3127 3126 3125 3125 3124 3123 3122 3122 3121 3120 3120 3119 3118 3117 3116 3115 3114 3113 3112 3111 3109 3108 3106 3105 3103 3101 3100 3098 3096 3094 3092 3090 3088 3088 3087 3086 3085 3084 3083 3082 3081 3080 3079 3076 3073 3070 3066
3157 3156 3155 3153 3151 3149 3148 3146 3144 3143 3141 3140 3139 3138 3136 3135 3135 3134 3134 3134 3133 3133 3133 3133 3133 3133 3133 3132 3133 3133 3133 3133 3133 3132 3132 3131 3131 3130 3129 3128 3127 3126 3126 3125 3124 3123 3123 3122 3121 3121 3120 3119 3119 3117 3116 3116 3115 3114 3112 3111 3109 3107 3106 3104 3102 3101 3099 3097 3095 3093 3090 3089 3087 3087 3086 3085 3084 3084 3083 3081 3079 3077 3075 3072 3069 3066 3062
3158 3157 3156 3154 3152 3151 3149 3147 3145 3144 3142 3140 3139 3138 3137 3136 3135 3135 3134 3134 3134 3134 3134 3134 3134 3134 3133 3133 3133 3133 3133 3133 3133 3133 3132 3131 3131 3130 3129 3129 3128 3127 3126 3126 3124 3123 3123 3122 3122 3121 3120 3120 3119 3118 3117 3116 3115 3114 3112 3110 3109 3107 3105 3104 3102 3100 3098 3096 3094 3091 3089 3088 3087 3086 3086 3085 3084 3083 3082 3080 3078 3075 3071 3068 3065 3062 3059
3159 3158 3157 3155 3154 3152 3150 3148 3146 3144 3142 3141 3140 3138 3137 3137 3136 3135 3135 3134 3134 3134 3134 3135 3135 3134 3134 3134 3134 3134 3134 3134 3133 3133 3132 3132 3131 3130 3130 3129 3128 3127 3127 3126 3125 3124 3123 3123 3122 3121 3121 3120 3119 3118 3117 3115 3114 3113 3111 3110 3108 3106 3105 3103 3101 3099 3097 3095 3093 3090 3088 3086 3085 3085 3085 3083 3082 3081 3080 3078 3076 3073 3070 3066 3063 3060 3057
3160 3159 3158 3157 3155 3153 3151 3149 3147 3145 3143 3142 3140 3139 3138 3137 3136 3136 3135 3135 3135 3135 3135 3135 3135 3135 3134 3134 3134 3134 3134 3134 3133 3133 3132 3132 3131 3131 3130 3129 3129 3128 3127 3126 3125 3125 3124 3123 3122 3121 3120 3119 3119 3118 3116 3115 3114 3113 3111 3109 3108 3106 3104 3102 3100 3098 3097 3095 3092 3089 3087 3086 3085 3085 3084 3082 3080 3079 3077 3075 3073 3070 3067 3064 3061 3058 3055
3161 3160 3159 3158 3156 3154 3152 3150 3148 3146 3144 3142 3141 3139 3138 3138 3137 3136 3136 3136 3135 3135 3136 3136 3135 3135 3135 3135 3135 3135 3134 3134 3134 3133 3133 3132 3132 3131 3131 3130 3129 3128 3127 3126 3126 3125 3124 3123 3122 3121 3120 3119 3119 3118 3116 3115 3114 3112 3111 3109 3107 3105 3103 3101 3099 3098 3096 3093 3090 3087 3086 3086 3085 3084 3082 3080 3079 3076 3073 3071 3070 3067 3064 3061 3058 3055 3052
3163 3162 3161 3159 3157 3155 3153 3151 3149 3147 3145 3143 3141 3140 3139 3138 3137 3137 3137 3136 3136 3136 3137 3136 3136 3136 3136 3136 3136 3135 3135 3135 3134 3134 3134 3133 3132 3132 3131 3130 3129 3129 3128 3127 3126 3125 3124 3123 3122 3121 3120 3119 3118 3117 3116 3115 3113 3112 3110 3109 3107 3105 3103 3101 3099 3097 3095 3093 3091 3089 3086 3085 3084 3082 3081 3079 3077 3074 3069 3065 3064 3063 3060 3057 3055 3051 3048
3164 3163 3162 3160 3158 3156 3154 3152 3150 3147 3145 3144 3142 3141 3140 3139 3138 3138 3137 3137 3137 3137 3137 3137 3136 3136 3136 3136 3136 3136 3136 3135 3135 3134 3134 3133 3133 3132 3132 3131 3130 3129 3128 3127 3126 3125 3124 3123 3122 3121 3120 3119 3117 3116 3115 3114 3113 3112 3111 3109 3107 3105 3103 3101 3099 3097 3095 3093 3091 3088 3085 3083 3082 3081 3080 3078 3076 3073 3068 3062 3060 3059 3057 3054 3051 3047 3044
3166 3164 3163 3161 3159 3158 3155 3153 3151 3148 3146 3145 3143 3142 3141 3140 3139 3138 3138 3137 3137 3137 3137 3137 3137 3137 3137 3137 3137 3136 3136 3136 3135 3135 3134 3134 3133 3133 3132 3131 3130 3129 3128 3127 3126 3125 3124 3123 3122 3121 3119 3118 3117 3116 3115 3114 3112 3111 3109 3107 3106 3104 3102 3101 3099 3097 3095 3092 3089 3086 3084 3082 3081 3080 3079 3077 3074 3071 3067 3061 3057 3055 3053 3050 3047 3044 3040
3167 3166 3164 3162 3161 3159 3156 3154 3152 3149 3147 3146 3144 3142 3141 3140 3140 3139 3138 3138 3138 3138 3137 3137 3137 3137 3137 3137 3137 3137 3137 3136 3136 3135 3135 3134 3133 3133 3132 3131 3130 3129 3128 3127 3126 3125 3124 3123 3122 3120 3119 3118 3117 3116 3115 3113 3112 3110 3109 3106 3105 3103 3101 3100 3098 3096 3094 3092 3090 3087 3084 3082 3080 3079 3076 3074 3071 3068 3064 3059 3054 3052 3050 3047 3044 3040 3036
3168 3167 3165 3164 3162 3160 3157 3155 3152 3150 3148 3146 3144 3143 3142 3141 3141 3140 3139 3139 3139 3138 3138 3138 3138 3138 3138 3138 3138 3137 3137 3137 3136 3136 3135 3134 3133 3133 3132 3131 3130 3129 3128 3127 3126 3125 3124 3123 3121 3120 3119 3118 3116 3115 3114 3112 3111 3109 3108 3106 3104 3102 3100 3098 3096 3094 3092 3091 3089 3088 3084 3081 3080 3078 3074 3072 3069 3066 3063 3058 3052 3049 3047 3044 3040 3037 3033
3169 3168 3166 3165 3163 3161 3158 3155 3153 3150 3149 3147 3145 3144 3143 3142 3141 3141 3140 3139 3140 3139 3138 3138 3139 3139 3139 3138 3138 3138 3138 3137 3136 3136 3135 3134 3133 3133 3132 3131 3130 3129 3128 3127 3126 3124 3123 3122 3121 3120 3118 3117 3116 3114 3112 3111 3109 3108 3106 3104 3102 3100 3098 3096 3094 3092 3091 3089 3088 3085 3083 3081 3079 3076 3073 3070 3067 3064 3062 3057 3052 3048 3045 3041 3038 3034 3030
3170 3169 3167 3166 3164 3161 3159 3156 3154 3152 3150 3148 3145 3144 3144 3143 3142 3141 3140 3140 3140 3140 3139 3139 3140 3140 3139 3139 3139 3139 3138 3137 3136 3136 3135 3134 3133 3132 3132 3131 3130 3129 3128 3126 3125 3124 3123 3122 3120 3119 3117 3116 3115 3113 3112 3110 3108 3107 3105 3103 3101 3099 3097 3095 3093 3091 3089 3088 3085 3083 3080 3078 3077 3074 3071 3068 3065 3062 3059 3055 3051 3047 3043 3039 3035 3031 3027
3171 3170 3168 3167 3165 3163 3160 3158 3155 3153 3151 3149 3146 3144 3144 3143 3142 3142 3141 3141 3141 3141 3140 3140 3140 3140 3140 3140 3139 3139 3138 3137 3137 3136 3135 3134 3133 3132 3131 3131 3129 3128 3127 3126 3125 3124 3122 3121 3119 3118 3116 3115 3114 3112 3111 3109 3108 3106 3104 3102 3100 3098 3096 3094 3092 3091 3088 3086 3084 3081 3078 3076 3074 3071 3068 3065 3062 3059 3055 3051 3048 3044 3041 3037 3032 3028 3024
3172 3171 3169 3168 3166 3164 3161 3159 3156 3154 3152 3149 3146 3145 3145 3144 3143 3143 3143 3141 3141 3142 3141 3141 3141 3141 3140 3140 3140 3139 3138 3138 3137 3136 3135 3134 3133 3132 3131 3130 3129 3128 3127 3126 3125 3123 3122 3120 3119 3117 3116 3114 3113 3111 3110 3108 3107 3105 3103 3101 3100 3098 3096 3094 3092 3090 3088 3086 3084 3081 3078 3074 3072 3069 3066 3062 3059 3056 3052 3048 3045 3041 3037 3033 3028 3024 3020
3173 3172 3170 3169 3167 3165 3162 3160 3157 3155 3153 3150 3147 3147 3147 3146 3145 3145 3143 3142 3143 3144 3143 3142 3142 3142 3141 3141 3140 3139 3139 3138 3137 3136 3135 3134 3133 3132 3131 3130 3129 3128 3127 3125 3124 3123 3121 3119 3118 3117 3115 3114 3112 3111 3109 3107 3105 3104 3102 3100 3098 3097 3095 3093 3091 3089 3088 3085 3082 3079 3076 3072 3069 3066 3063 3060 3056 3053 3050 3046 3042 3037 3033 3029 3025 3021 3016
3174 3173 3171 3170 3168 3166 3163 3161 3158 3156 3154 3151 3149 3149 3148 3146 3146 3145 3144 3143 3144 3145 3144 3143 3143 3142 3142 3141 3140 3140 3139 3138 3137 3136 3135 3134 3133 3132 3131 3130 3129 3127 3126 3125 3123 3122 3120 3119 3117 3116 3114 3113 3111 3109 3108 3106 3104 3102 3101 3099 3097 3095 3093 3091 3089 3087 3084 3082 3079 3076 3073 3070 3067 3063 3060 3057 3054 3050 3047 3043 3038 3034 3030 3026 3022 3017 3013
3175 3174 3172 3171 3169 3166 3164 3162 3159 3157 3155 3153 3151 3149 3148 3147 3146 3146 3145 3145 3146 3145 3144 3144 3143 3143 3142 3142 3141 3140 3139 3138 3137 3137 3136 3135 3133 3132 3131 3130 3128 3127 3125 3124 3122 3121 3119 3118 3117 3115 3113 3112 3110 3108 3107 3105 3103 3101 3099 3097 3095 3093 3091 3089 3086 3084 3081 3078 3076 3073 3070 3067 3064 3060 3057 3054 3051 3047 3044 3040 3035 3031 3027 3023 3018 3014 3010
3176 3174 3173 3171 3169 3167 3165 3163 3161 3158 3156 3154 3151 3150 3149 3148 3148 3147 3147 3147 3146 3146 3145 3145 3144 3143 3143 3142 3141 3140 3139 3139 3138 3136 3135 3134 3133 3132 3130 3129 3127 3126 3124 3123 3121 3120 3118 3117 3115 3114 3112 3110 3109 3107 3106 3104 3102 3100 3098 3096 3093 3091 3089 3086 3084 3082 3079 3076 3073 3070 3067 3064 3061 3058 3054 3051 3048 3044 3041 3037 3032 3028 3024 3020 3015 3011 3007
3176 3175 3174 3172 3170 3168 3166 3164 3162 3160 3157 3155 3152 3151 3150 3149 3149 3148 3147 3147 3147 3146 3146 3145 3144 3144 3143 3142 3141 3140 3139 3138 3137 3136 3135 3133 3132 3131 3129 3128 3126 3125 3123 3122 3120 3119 3117 3115 3114 3112 3111 3109 3107 3106 3104 3102 3100 3098 3096 3094 3092 3089 3087 3084 3081 3079 3076 3073 3069 3066 3064 3061 3058 3055 3051 3048 3045 3041 3037 3034 3029 3025 3021 3017 3012 3008 3004
3177 3176 3174 3173 3171 3169 3167 3165 3163 3161 3158 3156 3154 3153 3151 3150 3150 3149 3148 3148 3147 3147 3146 3145 3145 3144 3143 3142 3141 3140 3139 3138 3137 3135 3134 3133 3131 3130 3128 3127 3125 3124 3122 3120 3119 3117 3115 3114 3112 3111 3109 3107 3106 3104 3102 3100 3098 3096 3094 3093 3090 3087 3085 3082 3079 3076 3073 3070 3067 3064 3060 3057 3054 3051 3048 3045 3042 3038 3034 3030 3026 3022 3018 3014 3009 3005 3001
3178 3177 3175 3174 3172 3171 3169 3167 3164 3162 3159 3157 3156 3154 3153 3152 3151 3150 3149 3148 3148 3147 3146 3145 3145 3144 3143 3142 3141 3140 3139 3137 3136 3135 3133 3131 3130 3128 3127 3125 3124 3122 3121 3119 3117 3115 3114 3112 3111 3109 3107 3105 3103 3102 3100 3098 3096 3094 3092 3090 3088 3085 3083 3080 3077 3074 3071 3068 3065 3061 3058 3055 3052 3049 3045 3042 3038 3035 3031 3027 3024 3020 3015 3011 3006 3002 2998
3178 3177 3176 3175 3173 3172 3170 3168 3165 3163 3161 3159 3158 3156 3155 3154 3152 3151 3150 3149 3148 3147 3146 3146 3145 3144 3143 3142 3140 3139 3138 3136 3135 3133 3132 3130 3129 3127 3126 3124 3122 3121 3119 3117 3115 3114 3112 3110 3109 3107 3105 3103 3101 3099 3098 3096 3094 3092 3090 3088 3086 3083 3080 3078 3074 3071 3068 3065 3062 3059 3055 3052 3049 3046 3042 3039 3035 3032 3028 3024 3021 3017 3012 3008 3003 2999 2995
3179 3178 3177 3175 3174 3172 3171 3169 3167 3165 3163 3161 3160 3159 3157 3155 3153 3152 3151 3150 3148 3147 3147 3146 3145 3144 3142 3141 3140 3138 3137 3135 3134 3132 3131 3129 3127 3126 3124 3122 3120 3119 3117 3115 3113 3112 3110 3108 3106 3104 3103 3101 3099 3097 3095 3093 3091 3090 3088 3085 3083 3080 3077 3074 3071 3068 3065 3062 3060 3056 3053 3049 3046 3043 3039 3036 3032 3029 3025 3022 3018 3014 3009 3005 3000 2996 2991
3179 3178 3177 3176 3175 3173 3172 3170 3169 3167 3165 3163 3162 3160 3158 3156 3154 3153 3151 3150 3149 3148 3147 3145 3144 3143 3142 3140 3139 3137 3136 3134 3133 3131 3129 3127 3126 3124 3122 3120 3118 3117 3115 3113 3111 3109 3107 3105 3104 3102 3100 3099 3097 3094 3093 3091 3088 3087 3085 3083 3080 3077 3074 3072 3069 3065 3062 3059 3056 3053 3050 3047 3043 3039 3036 3033 3030 3026 3022 3019 3015 3011 3006 3002 2997 2993 2988
3179 3178 3178 3177 3175 3174 3173 3171 3170 3168 3166 3164 3163 3161 3159 3158 3156 3154 3153 3151 3150 3148 3147 3145 3144 3142 3141 3140 3138 3136 3135 3133 3131 3129 3127 3125 3124 3122 3120 3118 3116 3114 3112 3110 3108 3106 3105 3103 3101 3099 3098 3096 3094 3092 3090 3089 3086 3084 3082 3080 3077 3075 3072 3069 3066 3063 3060 3056 3053 3050 3047 3044 3040 3036 3033 3030 3027 3023 3019 3016 3012 3008 3003 2999 2994 2990 2986
3180 3179 3178 3177 3176 3175 3174 3172 3171 3169 3167 3166 3164 3162 3161 3159 3157 3156 3154 3152 3151 3149 3147 3146 3144 3142 3141 3139 3137 3135 3133 3131 3129 3127 3125 3123 3121 3119 3117 3116 3114 3112 3110 3108 3106 3104 3102 3100 3098 3096 3095 3093 3091 3089 3088 3086 3084 3082 3079 3077 3074 3072 3069 3066 3063 3060 3057 3054 3050 3047 3044 3040 3037 3034 3030 3027 3024 3020 3016 3013 3008 3004 3000 2996 2991 2987 2983
3180 3179 3178 3177 3176 3175 3174 3173 3171 3170 3168 3167 3165 3163 3162 3160 3158 3157 3155 3153 3151 3149 3148 3146 3144 3143 3141 3139 3137 3134 3132 3130 3127 3125 3123 3121 3119 3117 3115 3113 3111 3109 3107 3105 3104 3101 3099 3098 3096 3094 3092 3091 3089 3086 3085 3084 3082 3079 3077 3074 3071 3069 3066 3063 3061 3057 3054 3051 3048 3044 3041 3038 3034 3031 3027 3024 3021 3017 3013 3010 3005 3001 2997 2993 2988 2984 2980
3180 3180 3179 3178 3177 3176 3174 3173 3172 3171 3169 3167 3166 3164 3162 3161 3159 3157 3155 3154 3152 3150 3148 3146 3144 3142 3140 3138 3136 3134 3131 3129 3126 3124 3121 3119 3117 3115 3112 3110 3109 3107 3105 3103 3101 3099 3097 3095 3093 3091 3090 3088 3086 3084 3083 3081 3079 3077 3074 3071 3069 3066 3063 3061 3058 3055 3052 3048 3045 3042 3038 3035 3031 3028 3025 3021 3018 3014 3011 3007 3002 2998 2994 2990 2985 2981 2977
3181 3180 3179 3178 3177 3176 3175 3174 3172 3171 3169 3168 3166 3165 3163 3161 3160 3158 3156 3154 3152 3150 3148 3146 3144 3142 3140 3137 3135 3133 3130 3128 3125 3123 3120 3117 3115 3113 3110 3108 3106 3104 3102 3100 3098 3097 3095 3093 3091 3089 3087 3086 3084 3082 3081 3079 3077 3074 3072 3069 3066 3063 3060 3058 3055 3052 3049 3046 3042 3039 3036 3032 3029 3025 3022 3018 3015 3011 3008 3004 3000 2996 2991 2987 2983 2978 2974
3181 3180 3179 3178 3177 3176 3175 3174 3172 3171 3170 3168 3167 3165 3163 3162 3160 3158 3156 3154 3152 3150 3148 3146 3144 3142 3139 3137 3134 3132 3130 3127 3124 3121 3119 3116 3113 3111 3108 3106 3104 3102 3100 3098 3096 3094 3092 3091 3088 3086 3085 3084 3082 3080 3079 3077 3074 3072 3069 3066 3063 3061 3058 3055 3052 3049 3046 3043 3040 3036 3033 3030 3026 3023 3019 3016 3012 3008 3005 3001 2997 2993 2989 2985 2980 2976 2971
3182 3181 3180 3178 3177 3176 3175 3174 3173 3171 3170 3168 3167 3165 3163 3162 3160 3158 3156 3154 3152 3150 3148 3146 3144 3141 3139 3136 3134 3131 3128 3126 3123 3120 3117 3114 3112 3109 3107 3104 3102 3099 3097 3095 3094 3092 3090 3088 3086 3084 3083 3081 3080 3078 3077 3075 3072 3069 3066 3063 3061 3058 3055 3052 3049 3046 3043 3040 3037 3033 3030 3027 3024 3020 3016 3013 3009 3006 3002 2998 2995 2991 2986 2982 2978 2974 2969
3182 3181 3180 3179 3178 3176 3175 3174 3172 3171 3170 3168 3167 3165 3163 3162 3160 3158 3156 3154 3152 3150 3148 3146 3143 3141 3138 3135 3133 3130 3127 3124 3122 3119 3116 3114 3111 3108 3106 3103 3101 3098 3095 3093 3092 3090 3088 3086 3083 3082 3080 3079 3078 3076 3074 3072 3069 3066 3064 3061 3058 3055 3052 3049 3047 3044 3040 3037 3034 3031 3027 3024 3021 3017 3014 3010 3007 3003 2999 2996 2992 2988 2984 2980 2975 2971 2967
3182 3181 3180 3179 3178 3177 3175 3174 3172 3171 3169 3168 3166 3165 3163 3161 3159 3157 3155 3153 3151 3149 3147 3144 3142 3140 3137 3134 3132 3129 3126 3123 3120 3118 3115 3113 3110 3108 3105 3102 3100 3097 3094 3092 3090 3088 3086 3084 3081 3080 3078 3077 3075 3074 3071 3069 3066 3064 3061 3058 3055 3052 3049 3046 3044 3041 3038 3035 3031 3028 3025 3021 3018 3014 3011 3007 3004 3000 2997 2993 2989 2985 2981 2977 2973 2969 2964
3183 3181 3180 3179 3178 3177 3175 3174 3172 3170 3169 3167 3166 3164 3162 3161 3159 3157 3154 3152 3150 3148 3146 3144 3141 3139 3136 3133 3130 3128 3125 3122 3119 3117 3114 3111 3109 3106 3104 3101 3099 3096 3093 3091 3089 3087 3084 3082 3080 3078 3076 3074 3073 3071 3068 3066 3063 3061 3058 3055 3052 3049 3047 3044 3041 3038 3035 3032 3029 3025 3022 3019 3015 3012 3008 3005 3001 2997 2994 2990 2986 2982 2978 2974 2970 2966 2962
3183 3182 3180 3179 3178 3177 3175 3174 3172 3170 3168 3167 3165 3163 3162 3160 3158 3156 3154 3151 3149 3147 3145 3143 3140 3137 3135 3132 3129 3127 3124 3121 3118 3115 3112 3110 3107 3104 3102 3100 3098 3095 3092 3090 3088 3086 3083 3081 3078 3076 3075 3072 3070 3068 3066 3063 3060 3058 3055 3052 3049 3046 3044 3041 3038 3035 3032 3029 3026 3023 3020 3016 3013 3009 3006 3002 2999 2995 2991 2987 2983 2979 2975 2972 2967 2963 2959
3183 3182 3180 3179 3178 3176 3175 3173 3172 3170 3168 3166 3165 3163 3161 3159 3157 3155 3153 3151 3149 3147 3144 3142 3139 3137 3134 3131 3128 3126 3123 3120 3117 3114 3111 3108 3106 3103 3100 3098 3096 3094 3091 3089 3087 3085 3083 3080 3077 3075 3072 3070 3068 3065 3063 3060 3057 3055 3052 3049 3046 3044 3041 3038 3035 3032 3029 3026 3023 3020 3017 3014 3010 3007 3003 3000 2996 2992 2989 2985 2981 2977 2973 2969 2965 2960 2956
3183 3182 3180 3179 3178 3176 3174 3173 3171 3170 3168 3166 3164 3162 3160 3159 3157 3155 3153 3151 3149 3146 3144 3141 3138 3136 3133 3130 3127 3124 3122 3119 3116 3113 3110 3108 3105 3102 3099 3097 3095 3092 3089 3087 3085 3082 3080 3078 3075 3073 3070 3068 3065 3062 3060 3057 3054 3052 3049 3046 3043 3041 3038 3035 3032 3029 3026 3023 3020 3017 3014 3011 3007 3004 3000 2997 2993 2990 2986 2982 2978 2974 2970 2966 2962 2958 2953
3182 3181 3180 3179 3177 3176 3174 3172 3171 3169 3167 3166 3164 3162 3160 3158 3156 3154 3152 3150 3147 3145 3143 3140 3138 3135 3132 3129 3126 3123 3121 3118 3115 3112 3109 3107 3104 3102 3099 3096 3093 3090 3087 3085 3082 3080 3078 3075 3073 3070 3068 3065 3063 3060 3057 3054 3052 3049 3046 3043 3041 3038 3035 3032 3029 3027 3024 3021 3017 3014 3011 3008 3005 3001 2998 2994 2991 2987 2984 2980 2976 2972 2967 2963 2959 2955 2951
3182 3181 3179 3178 3177 3175 3174 3172 3170 3169 3167 3165 3163 3161 3159 3157 3155 3152 3150 3148 3146 3144 3141 3139 3136 3134 3131 3128 3125 3122 3119 3117 3114 3111 3108 3105 3102 3100 3097 3094 3092 3089 3086 3083 3080 3078 3075 3073 3070 3068 3065 3062 3059 3057 3054 3051 3049 3046 3043 3040 3038 3035 3032 3030 3027 3024 3021 3018 3015 3012 3009 3005 3002 2999 2995 2991 2988 2984 2981 2977 2973 2969 2965 2961 2957 2952 2948
3181 3180 3178 3177 3176 3174 3173 3171 3170 3168 3166 3164 3163 3160 3158 3156 3154 3151 3149 3147 3144 3142 3140 3137 3135 3132 3129 3127 3124 3121 3118 3115 3113 3110 3107 3104 3101 3098 3095 3093 3090 3088 3085 3081 3078 3076 3073 3070 3067 3065 3062 3059 3056 3053 3051 3048 3046 3043 3040 3037 3035 3032 3029 3027 3024 3021 3018 3015 3012 3009 3006 3003 2999 2996 2993 2989 2985 2981 2978 2975 2971 2967 2962 2958 2954 2950 2945
3180 3179 3177 3176 3175 3173 3172 3170 3169 3167 3165 3163 3161 3159 3157 3155 3152 3150 3148 3145 3143 3140 3138 3135 3133 3130 3128 3125 3122 3119 3117 3114 3111 3109 3106 3103 3100 3097 3094 3091 3088 3086 3084 3080 3076 3073 3071 3067 3064 3062 3059 3055 3052 3050 3047 3045 3042 3040 3037 3034 3032 3029 3026 3024 3021 3018 3015 3012 3009 3006 3003 3000 2997 2993 2990 2986 2983 2979 2975 2972 2968 2964 2960 2956 2952 2947 2943
3179 3178 3176 3175 3173 3172 3170 3169 3167 3166 3164 3162 3160 3158 3156 3153 3151 3148 3146 3143 3141 3139 3136 3133 3131 3128 3125 3123 3120 3117 3115 3112 3109 3107 3105 3102 3099 3096 3093 3090 3086 3084 3081 3078 3074 3071 3068 3065 3061 3058 3056 3052 3049 3046 3044 3041 3039 3036 3034 3031 3028 3026 3023 3021 3018 3015 3012 3009 3006 3003 3000 2997 2994 2991 2987 2984 2980 2976 2972 2969 2966 2962 2958 2954 2950 2945 2941
3177 3176 3175 3174 3172 3170 3169 3167 3166 3164 3162 3160 3158 3156 3154 3152 3149 3147 3144 3142 3139 3137 3134 3132 3129 3126 3123 3120 3118 3115 3113 3110 3108 3105 3103 3100 3098 3095 3092 3088 3085 3082 3079 3076 3072 3068 3065 3062 3058 3055 3052 3049 3046 3043 3040 3038 3035 3033 3030 3028 3025 3023 3020 3018 3015 3012 3009 3006 3003 3001 2998 2994 2991 2988 2984 2981 2978 2974 2970 2966 2963 2959 2955 2951 2947 2943 2939
3175 3174 3173 3172 3170 3169 3167 3165 3164 3162 3160 3158 3156 3154 3152 3150 3148 3145 3143 3140 3137 3135 3132 3129 3127 3124 3121 3118 3116 3113 3111 3108 3106 3103 3101 3099 3096 3093 3089 3086 3083 3080 3076 3073 3070 3066 3063 3059 3055 3051 3048 3046 3043 3040 3037 3034 3032 3030 3027 3025 3022 3020 3017 3015 3012 3009 3006 3003 3000 2998 2995 2992 2989 2985 2982 2978 2975 2971 2968 2964 2960 2957 2953 2949 2945 2941 2937
3174 3172 3171 3170 3169 3167 3165 3163 3162 3160 3158 3156 3154 3152 3150 3147 3145 3143 3141 3138 3135 3133 3130 3128 3125 3122 3120 3117 3114 3112 3109 3106 3103 3101 3099 3097 3094 3091 3087 3084 3081 3077 3073 3070 3067 3064 3060 3056 3052 3048 3045 3042 3039 3036 3034 3031 3029 3026 3024 3021 3019 3016 3014 3012 3009 3006 3004 3001 2998 2995 2992 2989 2986 2983 2979 2976 2972 2968 2965 2961 2957 2954 2950 2946 2942 2939 2935